Weather History for Nausori, Fiji

Change the Weather History Date:

Monday, January 22, 2007

  Actual Average Record
Temperature  
Mean Temperature 81 °F -  
Max Temperature 86 °F - - ()
Min Temperature 76 °F - - ()
Cooling Degree Days 16    
Growing Degree Days 31 (Base 50)    
Moisture  
Dew Point 72 °F    
Average Humidity 75    
Maximum Humidity 94    
Minimum Humidity 59    
Precipitation  
Precipitation 0.12 in - - ()
Sea Level Pressure  
Sea Level Pressure 29.82 in    
Wind  
Wind Speed 6 mph ()    
Max Wind Speed 16 mph    
Max Gust Speed -    
Visibility 12.1 miles    
Events Rain    
T = Trace of Precipitation, MM = Missing Value Source: Averaged Metar Reports

Daily Weather History Graph

Daily Weather History Graph

Search for Another Location

Airport:

Trip Planner

Search our weather history database for the weather conditions in past years. The results will help you decide how hot, cold, wet, or windy it might be!

Date:

Astronomy

Jan. 22, 2007 Rise Set
Actual Time 5:46 AM FJT 6:47 PM FJT
Civil Twilight 5:22 AM FJT 7:11 PM FJT
Nautical Twilight 4:55 AM FJT 7:38 PM FJT
Astronomical Twilight 4:26 AM FJT 8:07 PM FJT
Moon 8:26 AM FJT (1/22) 9:12 PM FJT (1/22)
Length of Visible Light 13h 48m
Length of Day
13h 01m
Waxing Crescent, 10% of the Moon is Illuminated
Jan 22
Waxing Crescent
Jan 26
First Quarter
Feb 2
Full
Feb 10
Last Quarter
Feb 18
New

Hourly Weather History & Observations

Time (FJT) Temp. Heat Index Dew Point Humidity Pressure Visibility Wind Dir Wind Speed Gust Speed Precip Events Conditions
12:00 AM 79 °F - 70 °F 66% 29.85 in 31 mi SE 5.8 mph - -   Partly Cloudy
12:00 AM 78.8 °F - 69.8 °F 74% 29.83 in 31.1 mi SE 5.8 mph - N/A   Partly Cloudy
1:00 AM 78.8 °F - 69.8 °F 74% 29.83 in 31.1 mi Calm Calm - N/A   Partly Cloudy
2:00 AM 78.8 °F - 69.8 °F 74% 29.80 in 31.1 mi Calm Calm - N/A   Partly Cloudy
3:00 AM 78 °F - 70 °F 71% 29.81 in 31 mi Calm Calm - -   Partly Cloudy
3:00 AM 78.8 °F - 69.8 °F 74% 29.80 in 31.1 mi Calm Calm - N/A   Partly Cloudy
4:00 AM 77.0 °F - 69.8 °F 78% 29.80 in 31.1 mi Calm Calm - N/A   Partly Cloudy
5:00 AM 77.0 °F - 69.8 °F 78% 29.80 in 31.1 mi SSE 5.8 mph - N/A   Partly Cloudy
6:00 AM 79 °F - 71 °F 69% 29.82 in 31 mi SE 5.8 mph - -   Partly Cloudy
6:00 AM 78.8 °F - 71.6 °F 78% 29.80 in 31.1 mi SE 5.8 mph - N/A   Scattered Clouds
7:00 AM 78.8 °F - 71.6 °F 78% 29.83 in 31.1 mi ESE 11.5 mph - N/A   Scattered Clouds
8:00 AM 80.6 °F 84.6 °F 71.6 °F 74% 29.83 in 31.1 mi SE 11.5 mph - N/A   Scattered Clouds
9:00 AM 82 °F - 70 °F 59% 29.86 in 31 mi ESE 5.8 mph - -   Partly Cloudy
9:00 AM 82.4 °F 86.3 °F 69.8 °F 66% 29.83 in 31.1 mi ESE 5.8 mph - N/A   Mostly Cloudy
10:00 AM 82.4 °F 86.3 °F 69.8 °F 66% 29.83 in 31.1 mi ESE 11.5 mph - N/A   Mostly Cloudy
11:00 AM 82.4 °F 86.3 °F 69.8 °F 66% 29.83 in 31.1 mi ESE 11.5 mph - N/A   Mostly Cloudy
12:00 PM 83 °F - 71 °F 60% 29.84 in 31 mi ESE 11.5 mph - -   Partly Cloudy
12:00 PM 82.4 °F 87.2 °F 71.6 °F 70% 29.83 in 31.1 mi ESE 11.5 mph - N/A   Mostly Cloudy
1:00 PM 82.4 °F 87.2 °F 71.6 °F 70% 29.80 in 31.1 mi ESE 11.5 mph - N/A   Mostly Cloudy
2:00 PM 86.0 °F 95.1 °F 75.2 °F 70% 29.80 in 31.1 mi SE 16.1 mph - N/A   Mostly Cloudy
3:00 PM 83 °F - 76 °F 73% 29.80 in 31 mi SSE 12.7 mph - -   Partly Cloudy
3:00 PM 84.2 °F 92.3 °F 75.2 °F 74% 29.80 in 31.1 mi SSE 12.7 mph - N/A   Scattered Clouds
4:00 PM 80.6 °F 86.2 °F 75.2 °F 84% 29.77 in 31.1 mi SE 13.8 mph - N/A   Mostly Cloudy
5:00 PM 80.6 °F 86.2 °F 75.2 °F 84% 29.80 in 31.1 mi SSE 9.2 mph - N/A   Overcast
6:00 PM 79 °F - 75 °F 83% 29.82 in 12 mi South 3.5 mph - - Rain Light Rain Showers
6:00 PM 78.8 °F - 75.2 °F 89% 2.95 in 12.4 mi South 3.5 mph - N/A Rain Light Rain Showers
7:00 PM 80.6 °F 86.2 °F 75.2 °F 84% 29.83 in 31.1 mi ESE 11.5 mph - N/A   Overcast
8:00 PM 80.6 °F 85.4 °F 73.4 °F 79% 29.83 in 24.9 mi ESE 11.5 mph - N/A   Mostly Cloudy
9:00 PM 81 °F - 74 °F 74% 29.86 in 12 mi SSE 9.2 mph - -   Partly Cloudy
9:00 PM 80.6 °F 85.4 °F 73.4 °F 79% 29.86 in 24.9 mi SSE 9.2 mph - N/A   Mostly Cloudy
10:00 PM 78.8 °F - 73.4 °F 83% 2.98 in 24.9 mi East 12.7 mph - N/A Rain Light Rain Showers
11:00 PM 77.0 °F - 75.2 °F 94% 29.86 in 31.1 mi ESE 5.8 mph - N/A   Mostly Cloudy